Wind_Speed
17 18 18 19 18 18 18 17 17 18 18 18 18 18 17 17 18 17 16 17 17 19 20 20 21 20 20 21 21 20 19 19 18 16 15 14 15 15 14 14 15 11 14 13 13
23 24 24 24 25 24 24 24 24 23 23 23 23 23 24 22 22 23 22 22 22 23 24 25 25 26 26 26 27 26 26 27 24 25 23 22 20 19 18 17 18 17 19 18 17
30 30 30 30 30 30 29 28 28 28 28 28 27 27 26 26 26 25 26 26 26 27 28 28 28 29 30 31 33 31 31 32 30 30 29 29 29 27 23 19 24 22 21 21 24
36 36 36 36 35 34 33 32 32 31 30 30 29 28 27 27 28 29 29 29 28 29 30 32 31 32 32 33 34 32 32 35 33 34 33 34 34 33 32 23 28 28 26 25 26
36 36 37 37 37 36 35 34 33 33 32 32 32 31 29 26 31 31 31 31 31 31 32 33 34 35 34 36 37 36 34 36 35 36 36 39 35 37 30 33 33 32 30 30 29
33 34 34 34 34 34 34 34 32 32 32 33 33 33 31 26 31 31 31 32 32 32 34 35 35 37 36 35 38 36 36 35 34 34 40 42 35 34 24 37 34 35 34 32 31
36 35 35 35 34 33 34 35 35 34 35 36 37 38 35 32 33 35 34 34 34 34 34 36 38 39 39 36 37 36 37 34 27 32 41 42 31 25 27 36 33 33 33 35 33
39 39 38 38 38 37 37 39 39 39 41 43 43 44 40 35 36 37 39 37 36 37 37 37 39 42 39 37 40 39 39 34 24 32 39 41 34 21 27 33 30 30 30 29 28
42 42 42 43 42 42 43 45 45 45 46 46 47 48 45 40 37 40 41 40 40 38 39 39 42 42 38 37 42 37 42 40 34 31 39 44 44 29 32 36 32 27 29 28 28
46 46 46 46 46 46 46 47 48 48 47 48 49 49 46 43 40 40 41 42 42 42 42 43 46 48 39 38 45 42 49 47 43 31 43 50 49 42 35 39 36 31 29 29 30
51 50 50 49 50 50 49 50 50 51 50 49 50 48 48 47 45 42 40 42 43 44 42 46 50 47 38 42 44 48 51 53 47 38 48 52 55 50 41 38 36 36 33 29 29
52 52 53 51 51 51 50 51 51 51 52 52 50 52 51 50 47 43 41 41 43 44 45 47 53 41 43 44 47 49 50 51 49 44 51 55 56 53 47 41 34 34 31 30 32
53 51 50 49 50 50 52 51 50 50 54 52 51 51 49 48 46 43 44 44 44 47 44 49 50 48 48 48 48 47 50 49 54 52 53 55 58 49 42 39 36 35 34 33 33
53 50 50 53 54 53 51 50 53 54 57 55 54 48 47 46 46 49 45 41 42 41 42 50 44 45 45 47 40 51 44 50 54 56 58 54 57 48 42 43 39 39 34 29 32
57 62 57 56 55 54 55 56 53 45 54 52 52 49 41 43 44 45 47 46 46 45 46 46 46 47 50 46 47 51 49 50 52 56 59 61 62 56 48 42 42 32 34 33 28
60 63 64 59 57 60 59 57 52 48 59 57 56 54 51 47 49 52 53 53 52 50 50 47 46 49 50 50 50 50 52 48 50 54 62 57 56 49 53 49 44 45 40 41 36
54 57 61 64 63 58 58 58 55 56 59 57 57 57 55 61 62 56 56 59 61 58 56 52 54 53 53 53 53 48 51 57 62 60 62 61 58 52 55 58 56 53 50 45 44
55 55 58 59 54 54 55 56 59 57 55 56 59 59 60 62 63 61 59 62 62 64 68 66 58 56 55 54 56 57 57 61 65 65 65 63 67 54 60 59 61 60 57 61 51
72 67 64 65 66 65 62 67 62 60 63 59 61 65 68 72 68 66 70 68 64 61 62 64 68 63 63 61 60 62 65 60 62 64 69 70 70 62 61 61 65 61 56 60 62
76 72 71 67 72 70 72 71 71 67 66 67 68 69 70 71 73 73 70 73 70 66 65 65 66 67 59 58 60 58 56 60 66 70 71 70 71 68 63 62 65 64 58 58 58
71 73 81 71 72 73 77 78 72 69 71 68 69 72 74 75 75 77 76 74 71 73 72 74 74 66 65 57 49 51 55 58 63 71 74 75 67 55 61 62 62 58 57 56 50
71 71 71 71 75 76 77 71 70 70 70 74 74 73 73 72 77 83 89 86 80 71 72 75 77 78 77 70 67 61 54 50 55 58 66 75 78 44 55 55 57 61 57 54 56
73 73 72 73 75 74 74 75 71 66 67 71 73 72 69 72 76 77 78 76 74 72 72 74 68 75 78 73 73 71 70 64 58 57 69 72 72 56 56 55 50 54 49 43 53
69 70 70 72 72 73 69 69 71 69 70 68 71 70 72 73 71 74 74 74 67 67 66 71 76 75 78 78 77 80 74 73 73 65 68 76 85 65 51 51 54 68 67 68 60
69 71 72 73 71 69 69 69 71 71 71 70 71 72 72 74 74 73 68 70 71 70 69 68 74 74 78 72 67 66 72 72 77 83 89 91 92 86 82 82 83 80 77 71 70
68 68 70 69 66 66 65 64 64 62 64 68 70 68 68 70 66 66 62 58 67 67 66 66 65 62 68 66 62 69 64 59 63 64 69 69 74 64 68 63 62 79 73 63 58
66 67 66 66 65 66 66 65 64 64 64 62 64 65 64 67 68 66 66 67 68 67 66 66 68 67 66 53 57 67 64 68 58 56 68 66 60 57 52 51 61 74 86 89 79
Wind_Direction
247 247 255 267 275 278 280 282 285 289 292 293 296 294 290 291 292 291 291 292 294 297 298 298 299 299 299 302 305 309 311 310 313 315 314 313 313 315 315 316 320 331 327 328 322
258 260 263 267 272 278 281 285 288 289 287 285 286 288 291 290 288 287 288 289 289 288 289 289 291 292 295 297 297 298 302 301 305 307 308 308 306 305 306 308 300 305 310 311 308
264 264 266 268 271 274 276 279 281 282 282 283 284 283 284 287 289 287 287 287 286 287 287 286 286 287 288 290 290 293 296 296 300 300 301 300 300 300 300 297 293 295 294 297 298
261 264 266 269 270 272 273 274 276 276 277 278 279 280 282 285 286 287 288 289 288 286 285 286 287 286 286 285 285 287 290 290 293 295 294 291 293 293 299 287 287 292 289 288 284
259 261 264 267 268 270 271 272 273 274 275 277 278 278 280 284 282 286 288 288 287 288 289 288 287 284 285 286 285 288 285 288 289 291 288 287 290 294 300 285 289 286 284 283 281
259 261 262 263 265 268 271 272 273 274 276 276 277 277 277 282 281 285 285 286 288 289 290 291 291 290 289 288 287 289 287 285 289 289 285 284 287 293 296 283 284 284 285 282 279
260 261 262 264 265 265 266 267 270 272 274 274 275 274 275 277 277 280 280 283 286 288 289 290 291 290 290 292 291 290 289 290 295 281 281 284 286 293 288 291 291 290 288 286 284
259 261 261 262 265 266 268 269 269 269 271 273 273 273 271 267 271 272 274 277 281 285 285 286 286 286 290 291 292 291 292 292 276 278 283 282 288 283 284 287 288 287 285 287 284
257 258 260 261 263 265 267 269 270 271 272 273 274 275 273 270 267 268 271 277 279 280 282 283 281 281 285 291 289 298 294 286 282 285 287 285 287 288 282 285 289 280 279 278 278
259 259 261 264 266 267 268 270 272 273 273 275 274 274 275 272 270 268 272 274 276 278 280 282 281 278 282 289 290 287 284 286 288 290 283 282 283 281 278 281 284 290 287 283 276
261 262 263 264 266 268 270 270 272 274 274 272 274 273 276 276 273 272 272 272 275 274 275 274 276 282 291 282 284 283 285 288 293 295 286 283 281 283 280 278 285 283 284 286 283
263 264 265 265 265 267 267 269 270 272 272 272 273 276 275 277 280 279 274 272 271 272 271 275 276 286 281 279 279 282 288 288 290 291 280 282 284 286 289 289 287 285 282 281 280
265 265 266 267 267 267 268 267 268 270 273 272 270 272 274 276 278 278 276 274 270 269 272 271 275 274 276 277 277 278 280 288 285 285 280 286 283 286 291 292 292 289 284 285 278
267 265 265 266 266 267 268 267 267 270 271 271 271 268 270 273 277 277 276 275 274 275 270 267 270 271 271 271 278 272 278 275 279 281 284 280 285 284 293 291 289 284 281 279 280
260 261 263 268 269 266 268 268 270 277 270 272 274 276 271 271 273 273 274 276 278 277 272 273 270 270 267 270 270 273 271 272 274 277 278 278 285 297 294 293 288 287 287 282 276
260 261 261 260 264 268 269 266 264 268 270 272 273 277 278 278 285 279 277 281 280 276 274 274 272 270 272 270 272 274 273 274 272 271 271 274 282 290 294 288 289 289 287 290 285
264 262 263 262 264 262 262 263 260 263 270 272 270 275 279 281 282 280 275 278 282 280 278 274 273 272 270 272 275 274 273 273 271 269 269 275 274 278 280 289 290 290 286 284 284
260 260 264 260 257 253 260 264 262 265 270 275 276 276 279 280 278 278 280 282 282 280 280 275 266 271 274 276 274 269 267 268 270 272 276 273 272 275 283 285 286 287 289 288 285
272 270 265 260 256 255 261 263 258 267 272 273 270 272 273 276 272 274 276 278 278 279 279 279 275 281 278 275 272 272 269 272 267 267 270 273 272 272 276 278 279 281 285 288 293
275 275 271 266 257 265 266 263 264 269 271 273 270 268 270 271 271 270 272 277 277 277 278 279 279 276 279 282 280 278 275 271 269 268 267 267 267 268 272 275 274 278 287 291 291
269 273 275 271 274 271 272 273 273 276 277 276 273 273 270 270 274 275 275 273 274 275 281 280 279 271 274 275 282 278 279 275 269 263 265 267 260 263 268 272 281 284 283 283 281
269 271 272 270 270 272 274 279 279 277 274 272 272 274 274 271 269 267 270 272 274 279 278 278 282 283 273 274 271 274 277 276 275 275 274 270 266 257 265 268 270 272 278 282 284
268 269 270 269 270 273 273 274 273 271 271 273 274 273 273 272 272 272 272 273 274 276 278 278 273 276 278 274 273 274 276 273 271 269 270 266 266 264 254 258 270 282 280 281 286
271 270 268 268 270 271 272 271 272 272 273 273 272 273 274 275 274 276 275 275 272 271 271 272 273 273 275 282 283 280 276 269 271 261 265 272 282 274 258 264 271 278 279 278 277
269 270 270 270 270 271 271 272 271 272 272 271 272 273 274 274 273 274 276 274 272 274 272 270 274 277 280 282 279 276 272 269 267 269 271 279 278 279 280 275 272 280 274 278 271
270 269 269 270 269 270 270 272 271 272 271 270 271 272 273 275 276 273 271 264 272 269 269 270 270 276 283 285 283 278 275 267 273 275 272 277 276 273 273 273 269 273 277 270 261
268 268 269 271 272 272 274 274 275 274 271 272 272 273 273 272 272 273 272 270 272 271 269 265 262 265 262 265 268 258 273 280 275 270 282 274 273 267 254 249 257 264 267 271 264
Height
5886 5886 5887 5888 5888 5889 5890 5890 5890 5890 5890 5889 5889 5888 5888 5887 5886 5886 5885 5886 5885 5884 5883 5882 5881 5880 5879 5878 5877 5876 5875 5873 5871 5870 5869 5868 5866 5865 5863 5862 5861 5860 5858 5856 5854
5882 5882 5883 5883 5884 5885 5885 5885 5886 5885 5886 5885 5885 5884 5884 5884 5883 5882 5882 5881 5881 5880 5879 5879 5878 5877 5876 5874 5873 5872 5871 5869 5868 5866 5865 5864 5863 5861 5860 5858 5858 5857 5855 5853 5851
5878 5878 5878 5878 5879 5880 5880 5880 5880 5880 5880 5880 5880 5880 5880 5879 5879 5878 5877 5876 5876 5875 5874 5873 5873 5872 5871 5870 5867 5868 5866 5863 5863 5861 5860 5858 5857 5856 5855 5854 5852 5852 5851 5849 5847
5871 5872 5873 5873 5874 5874 5874 5875 5875 5874 5874 5874 5874 5874 5874 5875 5875 5872 5872 5871 5870 5869 5868 5867 5867 5865 5865 5864 5861 5863 5860 5857 5858 5855 5853 5850 5850 5850 5850 5846 5846 5845 5845 5844 5842
5864 5865 5866 5866 5867 5868 5868 5868 5868 5868 5868 5868 5867 5867 5869 5870 5867 5867 5866 5865 5864 5862 5861 5860 5860 5858 5859 5857 5854 5855 5855 5850 5851 5849 5845 5842 5844 5842 5845 5837 5837 5837 5838 5837 5836
5857 5857 5858 5859 5860 5861 5861 5860 5861 5861 5861 5861 5861 5861 5862 5866 5861 5860 5859 5858 5858 5857 5855 5853 5852 5850 5851 5850 5846 5846 5846 5845 5845 5842 5835 5833 5837 5835 5838 5827 5830 5828 5828 5828 5828
5849 5850 5851 5852 5853 5853 5853 5852 5854 5854 5853 5853 5853 5852 5856 5859 5857 5854 5852 5851 5851 5850 5849 5847 5843 5841 5841 5841 5839 5837 5835 5836 5840 5833 5825 5822 5829 5830 5826 5820 5823 5821 5820 5818 5818
5842 5843 5843 5844 5845 5846 5846 5845 5847 5847 5846 5845 5843 5842 5845 5849 5848 5847 5845 5846 5844 5843 5842 5840 5836 5832 5832 5833 5829 5828 5826 5827 5833 5826 5819 5815 5819 5825 5819 5814 5816 5816 5814 5811 5810
5833 5833 5835 5835 5836 5838 5838 5837 5837 5837 5837 5836 5834 5833 5836 5839 5840 5837 5837 5838 5836 5836 5834 5832 5827 5824 5826 5825 5819 5821 5813 5814 5819 5821 5812 5806 5805 5819 5814 5809 5808 5808 5807 5805 5803
5824 5824 5825 5826 5827 5828 5828 5828 5826 5827 5828 5826 5824 5825 5826 5828 5830 5830 5830 5828 5827 5826 5825 5824 5817 5813 5820 5818 5809 5810 5800 5802 5805 5816 5803 5794 5793 5800 5805 5800 5799 5800 5799 5797 5795
5814 5815 5815 5816 5816 5817 5818 5817 5818 5816 5816 5816 5814 5815 5814 5816 5818 5820 5819 5818 5818 5816 5815 5810 5805 5807 5815 5808 5804 5798 5794 5791 5796 5802 5791 5784 5778 5782 5790 5791 5791 5791 5789 5787 5785
5804 5804 5804 5805 5805 5806 5806 5806 5805 5805 5802 5803 5806 5803 5804 5804 5805 5809 5809 5807 5806 5804 5803 5802 5792 5805 5802 5799 5794 5790 5788 5784 5784 5789 5778 5772 5766 5771 5775 5780 5782 5778 5779 5777 5775
5792 5792 5793 5794 5794 5795 5794 5794 5793 5793 5789 5794 5794 5792 5794 5795 5794 5797 5796 5794 5792 5791 5795 5790 5789 5790 5788 5787 5786 5784 5779 5779 5772 5771 5767 5760 5748 5761 5768 5768 5770 5769 5766 5766 5765
5779 5780 5781 5782 5783 5782 5782 5782 5781 5782 5779 5777 5778 5785 5785 5784 5784 5782 5781 5781 5779 5780 5781 5775 5781 5779 5775 5771 5777 5767 5775 5766 5763 5759 5751 5754 5729 5748 5758 5758 5759 5757 5757 5755 5754
5765 5766 5768 5769 5769 5770 5771 5770 5771 5772 5765 5765 5763 5765 5773 5774 5771 5772 5771 5769 5768 5768 5768 5768 5767 5767 5765 5765 5759 5758 5757 5755 5753 5750 5745 5737 5736 5730 5742 5744 5743 5748 5747 5745 5744
5750 5751 5754 5754 5756 5755 5755 5757 5760 5761 5748 5752 5753 5753 5754 5760 5759 5756 5755 5754 5754 5753 5754 5756 5755 5753 5754 5753 5749 5746 5745 5742 5740 5736 5732 5734 5735 5722 5724 5726 5730 5731 5734 5732 5732
5737 5737 5740 5741 5745 5741 5740 5741 5745 5743 5742 5744 5742 5741 5740 5740 5742 5742 5742 5742 5741 5737 5740 5740 5741 5741 5738 5737 5738 5736 5733 5725 5720 5717 5719 5725 5723 5721 5715 5715 5717 5718 5719 5719 5718
5723 5725 5726 5728 5729 5726 5724 5725 5726 5730 5732 5733 5733 5733 5728 5725 5723 5722 5723 5725 5726 5723 5722 5722 5729 5728 5727 5724 5722 5719 5717 5711 5702 5706 5708 5710 5704 5710 5710 5707 5705 5699 5700 5701 5701
5706 5708 5713 5713 5711 5708 5705 5704 5711 5716 5717 5717 5718 5714 5717 5713 5708 5706 5705 5708 5709 5708 5705 5701 5706 5708 5707 5708 5708 5707 5699 5701 5687 5689 5685 5692 5695 5698 5698 5695 5691 5688 5686 5684 5687
5686 5688 5696 5694 5691 5686 5685 5691 5694 5700 5701 5698 5697 5699 5700 5695 5691 5689 5690 5696 5694 5692 5685 5682 5679 5698 5690 5688 5689 5686 5689 5683 5673 5665 5663 5672 5675 5679 5684 5681 5678 5677 5678 5676 5674
5669 5669 5678 5676 5671 5666 5664 5673 5677 5682 5680 5680 5681 5676 5680 5679 5674 5673 5671 5679 5679 5677 5672 5663 5657 5677 5668 5673 5674 5670 5666 5663 5658 5650 5641 5641 5653 5678 5667 5667 5666 5667 5664 5663 5662
5650 5653 5659 5655 5649 5649 5654 5659 5662 5664 5662 5656 5654 5657 5658 5662 5655 5654 5653 5659 5667 5662 5652 5648 5638 5633 5650 5654 5653 5652 5649 5649 5637 5637 5632 5623 5619 5665 5659 5654 5653 5650 5649 5647 5644
5631 5634 5636 5633 5630 5633 5640 5642 5640 5648 5644 5638 5632 5637 5638 5637 5630 5633 5633 5643 5648 5643 5638 5635 5623 5612 5615 5632 5639 5629 5638 5631 5625 5618 5610 5607 5610 5641 5640 5637 5640 5637 5638 5635 5633
5610 5611 5615 5613 5618 5617 5618 5618 5618 5629 5623 5621 5616 5615 5616 5613 5617 5608 5614 5617 5626 5622 5623 5613 5605 5601 5595 5606 5616 5609 5614 5616 5609 5597 5595 5589 5595 5619 5625 5624 5629 5622 5620 5614 5612
5591 5593 5591 5594 5598 5598 5597 5597 5601 5604 5601 5603 5597 5598 5597 5590 5595 5594 5591 5593 5602 5602 5599 5594 5584 5582 5583 5587 5587 5587 5590 5593 5587 5585 5573 5577 5574 5583 5594 5601 5599 5597 5596 5592 5590
5572 5574 5574 5576 5576 5577 5580 5583 5579 5585 5578 5581 5576 5580 5577 5574 5572 5571 5573 5571 5576 5587 5582 5580 5570 5569 5561 5566 5568 5559 5564 5565 5565 5565 5559 5558 5550 5562 5565 5566 5566 5570 5570 5566 5552
5551 5551 5550 5557 5558 5553 5561 5560 5561 5556 5559 5560 5560 5557 5560 5558 5554 5553 5552 5554 5553 5556 5564 5557 5553 5553 5544 5546 5545 5532 5546 5544 5542 5546 5542 5531 5535 5527 5530 5537 5541 5540 5537 5531 5532